Weather History for Riverside, CA

Change the Weather History Date:

Thursday, October 24, 2013

  Actual Average Record
Temperature  
Mean Temperature 63 °F 66 °F  
Max Temperature 68 °F 80 °F 101 °F (1909)
Min Temperature 58 °F 53 °F 34 °F (1906)
Degree Days  
Heating Degree Days 2 2  
Month to date heating degree days 19 16  
Since 1 July heating degree days 19 18  
Cooling Degree Days 0 3  
Month to date cooling degree days 87 120  
Year to date cooling degree days 1949 1712  
Growing Degree Days 12 (Base 50)    
Moisture  
Dew Point 52 °F    
Average Humidity 68    
Maximum Humidity 80    
Minimum Humidity 55    
Precipitation  
Precipitation 0.00 in 0.01 in 0.43 in (1907)
Month to date precipitation 0.30 0.18  
Year to date precipitation 2.67 9.77  
Since 1 July precipitation 0.46 0.58  
Snow  
Snow 0.00 in - - ()
Month to date snowfall 0.0  
Year to date snowfall 0.0  
Since 1 July snowfall 0.0  
Snow Depth 0.00 in    
Sea Level Pressure  
Sea Level Pressure 29.97 in    
Wind  
Wind Speed 2 mph (West)    
Max Wind Speed 8 mph    
Max Gust Speed 12 mph    
Visibility 4 miles    
Events      
T = Trace of Precipitation, MM = Missing Value Source: NWS Daily Summary

Daily Weather History Graph

Daily Weather History Graph

Search for Another Location

Airport:

Trip Planner

Search our weather history database for the weather conditions in past years. The results will help you decide how hot, cold, wet, or windy it might be!

Date:

Astronomy

Oct. 24, 2013 Rise Set
Actual Time 7:02 AM PDT 6:04 PM PDT
Civil Twilight 6:36 AM PDT 6:30 PM PDT
Nautical Twilight 6:07 AM PDT 6:59 PM PDT
Astronomical Twilight 5:38 AM PDT 7:28 PM PDT
Moon 10:38 PM PDT (10/24) 12:00 PM PDT (10/24)
Length of Visible Light 11h 53m
Length of Day
11h 02m
Waning Gibbous, 70% of the Moon is Illuminated
Oct 24
Waning Gibbous
Oct 26
Last Quarter
Nov 3
New
Nov 9
First Quarter
Nov 17
Full

Hourly Weather History & Observations

Time (PDT) Temp. Dew Point Humidity Pressure Visibility Wind Dir Wind Speed Gust Speed Precip Events Conditions
12:53 AM 59.0 °F 53.1 °F 81% 29.94 in 5.0 mi Calm Calm - N/A   Haze
1:53 AM 59.0 °F 53.1 °F 81% 29.95 in 5.0 mi SW 4.6 mph - N/A   Haze
2:53 AM 60.1 °F 53.1 °F 78% 29.94 in 4.0 mi Calm Calm - N/A   Haze
3:53 AM 59.0 °F 53.1 °F 81% 29.93 in 4.0 mi Calm Calm - N/A   Haze
4:53 AM 59.0 °F 53.1 °F 81% 29.93 in 4.0 mi SW 4.6 mph - N/A   Haze
5:53 AM 59.0 °F 53.1 °F 81% 29.94 in 4.0 mi Calm Calm - N/A   Haze
6:53 AM 59.0 °F 53.1 °F 81% 29.95 in 3.0 mi Calm Calm - N/A   Haze
7:53 AM 59.0 °F 52.0 °F 78% 29.98 in 2.5 mi WSW 3.5 mph - N/A   Haze
8:34 AM 59.0 °F 53.6 °F 82% 30.02 in 2.5 mi WSW 3.5 mph - N/A   Haze
8:53 AM 59.0 °F 53.1 °F 81% 30.00 in 2.5 mi WSW 4.6 mph - N/A   Haze
9:11 AM 59.0 °F 51.8 °F 77% 30.03 in 3.0 mi Variable 3.5 mph - N/A   Haze
9:53 AM 60.1 °F 52.0 °F 75% 30.00 in 3.0 mi Calm Calm - N/A   Haze
10:53 AM 61.0 °F 52.0 °F 72% 30.00 in 4.0 mi West 3.5 mph - N/A   Haze
11:53 AM 61.0 °F 51.1 °F 70% 30.00 in 3.0 mi Calm Calm - N/A   Haze
12:53 PM 62.1 °F 51.1 °F 67% 29.98 in 3.0 mi West 6.9 mph - N/A   Haze
1:53 PM 64.0 °F 51.1 °F 63% 29.95 in 4.0 mi NNW 3.5 mph - N/A   Haze
2:16 PM 64.4 °F 51.8 °F 64% 29.98 in 3.0 mi Variable 5.8 mph - N/A   Haze
2:53 PM 66.0 °F 51.1 °F 59% 29.94 in 3.0 mi Calm Calm - N/A   Haze
3:53 PM 66.9 °F 51.1 °F 57% 29.93 in 3.0 mi Calm Calm - N/A   Haze
4:53 PM 68.0 °F 51.1 °F 55% 29.93 in 3.0 mi West 3.5 mph - N/A   Haze
5:53 PM 66.9 °F 51.1 °F 57% 29.95 in 3.0 mi Calm Calm - N/A   Haze
6:53 PM 64.9 °F 52.0 °F 63% 29.97 in 6.0 mi West 5.8 mph - N/A   Haze
7:53 PM 61.0 °F 53.1 °F 75% 30.00 in 9.0 mi West 5.8 mph - N/A   Clear
8:53 PM 60.1 °F 53.1 °F 78% 30.00 in 7.0 mi Calm Calm - N/A   Clear
9:53 PM 59.0 °F 53.1 °F 81% 30.02 in 7.0 mi Calm Calm - N/A   Clear
10:53 PM 57.9 °F 52.0 °F 81% 30.03 in 6.0 mi Calm Calm - N/A   Haze
11:53 PM 55.9 °F 52.0 °F 87% 30.03 in 5.0 mi Calm Calm - N/A   Clear